Regional Weather Roundup
Issued by NWS

Home | Current Version | Previous Version | Graphics & Text | Print | Product List | Glossary On
Versions: 1 2 3 4 5 6 7 8 9 10 11 12 13 14 15 16 17 18 19 20 21 22 23 24 25 26 27 28 29 30 31 32 33 34 35 36 37 38 39 40 41 42 43 44 45 46 47 48 49 50
000
ASUS43 KFSD 020110
RWRSD

WEATHER ROUNDUP FOR SOUTH DAKOTA
NATIONAL WEATHER SERVICE SIOUX FALLS SD
800 PM CDT MON SEP 01 2014

NOTE: "FAIR" INDICATES FEW OR NO CLOUDS BELOW 12,000 FEET WITH NO
SIGNIFICANT WEATHER AND/OR OBSTRUCTIONS TO VISIBILITY.


SDZ001>005-009-010-012>017-020200-
NORTHWEST AND NORTH CENTRAL SOUTH DAKOTA

CITY           SKY/WX    TMP DP  RH WIND       PRES   REMARKS
BUFFALO          N/A     64  47  53 E6        29.86R
FAITH            N/A     61  51  70 W7        29.91R
MOBRIDGE       CLOUDY    65  56  72 N6        29.83R
$$

SDZ012>016-024>037-041>051-057-063-072>074-020200-
SOUTHWEST AND SOUTH CENTRAL SOUTH DAKOTA

CITY           SKY/WX    TMP DP  RH WIND       PRES   REMARKS
RAPID CTY ARPT PTCLDY    64  51  62 NE3       29.96R
PIERRE         CLOUDY    64  53  67 NE5       29.86R
CUSTER         MOCLDY    56  38  50 NW7       30.04S
ELLSWORTH AFB  PTCLDY    64  49  58 NW5       29.95S
PHILIP         CLOUDY    64  55  72 W3        29.91R
PINE RIDGE     PTCLDY    57  53  86 MISG      29.98R
WINNER         CLOUDY    62  57  83 SW9       29.92S
$$

SDZ004>011-016>023-039-040-020200-
NORTHEAST SOUTH DAKOTA

CITY           SKY/WX    TMP DP  RH WIND       PRES   REMARKS
ABERDEEN       CLEAR     66  51  58 W7        29.81R
WATERTOWN      MOCLDY    64  51  62 SW15      29.83R
SISSETON         N/A     67  56  67 W8        29.77R
$$

SDZ017-020-022-023-036>040-048>070-020200-
SOUTHEAST SOUTH DAKOTA

CITY           SKY/WX    TMP DP  RH WIND       PRES   REMARKS
SIOUX FALLS    PTCLDY    70  55  59 CALM      29.85R
HURON          CLOUDY    60  55  83 S3        29.84F
CHAMBERLAIN    CLOUDY    59  56  90 SW7       29.91S
MITCHELL       LGT RAIN  64  54  69 NW12      29.86R
YANKTON        CLEAR     73  55  53 N3        29.84S
$$

ABBREVIATIONS USED IN REMARKS
   TC - TEMPERATURE IN CELSIUS
  WCI - WIND CHILL INDEX
   HX - HEAT INDEX
  VSB - VISIBILITY



USA.gov is the U.S. government's official web portal to all federal, state and local government web resources and services.